Location: Poughquag
(41.6090°N, 73.6820°W)
Time: 02:06:56
(UTC-04:00)

JY1SAT - Visible Passes

Search period start: 13 September 2024 00:00
Search period end: 23 September 2024 00:00
Orbit: 530 x 542 km, 97.5° (Epoch: 12 September)

Date Brightness Start Highest point End Pass type
(mag) Time Alt. Az. Time Alt. Az. Time Alt. Az.
13 Sep ? 21:26:52 20° NNE 21:26:52 20° NNE 21:28:15 10° N visible
14 Sep ? 21:18:04 18° NNE 21:18:04 18° NNE 21:19:17 10° N visible
15 Sep ? 21:09:11 15° NNE 21:09:11 15° NNE 21:10:09 10° NNE visible
16 Sep ? 21:00:11 13° NNE 21:00:11 13° NNE 21:00:52 10° NNE visible
16 Sep ? 22:35:35 10° NW 22:35:35 10° NW 22:35:40 10° NW visible
17 Sep ? 20:51:06 11° NNE 20:51:06 11° NNE 20:51:23 10° NNE visible
17 Sep ? 22:26:29 11° NNW 22:26:29 11° NNW 22:26:43 10° NNW visible
18 Sep ? 22:17:17 12° NNW 22:17:17 12° NNW 22:17:36 10° NNW visible
19 Sep ? 22:07:59 12° NNW 22:07:59 12° NNW 22:08:20 10° NNW visible
20 Sep ? 21:58:35 12° NNW 21:58:35 12° NNW 21:58:56 10° NNW visible
21 Sep ? 21:49:05 12° N 21:49:05 12° N 21:49:23 10° N visible
22 Sep ? 21:39:30 11° N 21:39:30 11° N 21:39:42 10° N visible
